Location: Brede
(50.9167°N, 0.6000°E)
Time: 23:17:42
(UTC+00:00)

SR - All Passes

Search period start: 25 November 2020 00:00
Search period end: 05 December 2020 00:00
Orbit: 579 x 876 km, 66.7° (Epoch: 25 November)

Date Brightness Start Highest point End Pass type
(mag) Time Alt. Az. Time Alt. Az. Time Alt. Az.
25 Nov - 01:31:10 10° NNW 01:34:59 21° NNE 01:39:01 10° ENE night (unlit)
25 Nov - 03:12:48 10° NW 03:17:56 66° NE 03:23:29 10° SE visible
25 Nov - 04:55:20 10° WNW 04:59:44 27° WSW 05:04:23 10° SSW visible
25 Nov - 17:52:17 10° ESE 17:53:10 11° ESE 17:54:03 10° E visible
25 Nov - 19:29:52 10° SSW 19:34:12 74° SE 19:38:53 10° NE visible
25 Nov - 21:13:00 10° W 21:16:46 25° NNW 21:20:47 10° NNE night (unlit)
25 Nov - 22:58:16 10° NW 23:00:33 13° N 23:02:56 10° NNE night (unlit)
26 Nov - 00:41:32 10° NNW 00:44:41 16° NNE 00:47:58 10° ENE night (unlit)
26 Nov - 02:23:10 10° NNW 02:28:02 41° NE 02:33:15 10° ESE visible
26 Nov - 04:05:12 10° NW 04:10:13 47° WSW 04:15:35 10° S visible
26 Nov - 18:40:37 10° S 18:44:38 38° ESE 18:48:56 10° NE visible
26 Nov - 20:22:31 10° WSW 20:26:40 38° NW 20:31:11 10° NNE visible
26 Nov - 22:07:22 10° NW 22:10:08 15° NNW 22:13:00 10° NNE night (unlit)
26 Nov - 23:51:42 10° NNW 23:54:15 14° N 23:56:54 10° NE night (unlit)
27 Nov - 01:33:35 10° NNW 01:37:58 28° NE 01:42:39 10° E night (unlit)
27 Nov - 03:15:20 10° NW 03:20:33 80° SW 03:26:12 10° SSE visible
27 Nov - 04:58:44 10° WNW 05:01:59 16° WSW 05:05:19 10° SW visible
27 Nov - 17:52:04 10° SSE 17:55:15 20° ESE 17:58:35 10° ENE visible
27 Nov - 19:32:23 10° SW 19:36:45 65° NW 19:41:30 10° NE visible
27 Nov - 21:16:27 10° WNW 21:19:46 19° NNW 21:23:17 10° NNE night (unlit)
27 Nov - 23:01:33 10° NNW 23:03:47 13° N 23:06:05 10° NNE night (unlit)
28 Nov - 00:43:58 10° NNW 00:47:46 21° NNE 00:51:45 10° ENE night (unlit)
28 Nov - 02:25:37 10° NNW 02:30:46 63° NE 02:36:19 10° SE night (unlit)
28 Nov - 04:08:05 10° NW 04:12:36 29° WSW 04:17:22 10° S visible
28 Nov - 18:42:40 10° SSW 18:47:01 69° ESE 18:51:43 10° NE visible
28 Nov - 20:25:42 10° W 20:29:33 26° NNW 20:33:39 10° NNE visible
28 Nov - 22:10:56 10° NW 22:13:18 13° N 22:15:46 10° NNE night (unlit)
28 Nov - 23:54:18 10° NNW 23:57:26 16° NNE 00:00:42 10° ENE night (unlit)
29 Nov - 01:35:59 10° NNW 01:40:50 40° NE 01:46:03 10° ESE night (unlit)
29 Nov - 03:17:58 10° NW 03:23:04 50° WSW 03:28:30 10° SSE night (unlit)
29 Nov - 17:53:29 10° S 17:57:28 36° ESE 18:01:43 10° NE visible
29 Nov - 19:35:15 10° WSW 19:39:28 40° NW 19:44:02 10° NNE visible
29 Nov - 21:20:01 10° NW 21:22:52 16° NNW 21:25:51 10° NNE night (unlit)
29 Nov - 23:04:27 10° NNW 23:07:00 14° N 23:09:40 10° NE night (unlit)
30 Nov - 00:46:23 10° NNW 00:50:45 27° NE 00:55:25 10° E night (unlit)
30 Nov - 02:28:08 10° NW 02:33:23 84° SW 02:39:03 10° SSE night (unlit)
30 Nov - 04:11:25 10° WNW 04:14:51 17° WSW 04:18:25 10° SSW night (unlit)
30 Nov - 17:05:02 10° SSE 17:08:06 19° ESE 17:11:19 10° ENE visible
30 Nov - 18:45:09 10° SW 18:49:33 69° NW 18:54:20 10° NE visible
30 Nov - 20:29:07 10° WNW 20:32:32 20° NNW 20:36:09 10° NNE visible
30 Nov - 22:14:14 10° NNW 22:16:32 13° N 22:18:54 10° NNE night (unlit)
30 Nov - 23:56:46 10° NNW 00:00:33 20° NNE 00:04:30 10° ENE night (unlit)
01 Dec - 01:38:25 10° NNW 01:43:35 60° NE 01:49:08 10° SE night (unlit)
01 Dec - 03:20:50 10° NW 03:25:27 30° WSW 03:30:20 10° S night (unlit)
01 Dec - 17:55:30 10° SSW 17:59:50 65° ESE 18:04:32 10° NE visible
01 Dec - 19:38:24 10° W 19:42:18 28° NW 19:46:30 10° NNE visible
01 Dec - 21:23:35 10° NW 21:26:03 14° N 21:28:37 10° NNE visible
01 Dec - 23:07:04 10° NNW 23:10:12 16° NNE 23:13:27 10° NE night (unlit)
02 Dec - 00:48:47 10° NNW 00:53:38 39° NE 00:58:50 10° ESE night (unlit)
02 Dec - 02:30:46 10° NW 02:35:54 53° WSW 02:41:24 10° SSE night (unlit)
02 Dec - 17:06:21 10° S 17:10:18 34° ESE 17:14:31 10° NE visible
02 Dec - 18:47:59 10° WSW 18:52:15 42° NW 18:56:52 10° NNE visible
02 Dec - 20:32:41 10° NW 20:35:37 16° NNW 20:38:42 10° NNE visible
02 Dec - 22:17:12 10° NNW 22:19:45 14° N 22:22:25 10° NE night (unlit)
02 Dec - 23:59:11 10° NNW 00:03:32 27° NNE 00:08:10 10° E night (unlit)
03 Dec - 01:40:56 10° NW 01:46:14 88° SW 01:51:55 10° SE night (unlit)
03 Dec - 03:24:05 10° WNW 03:27:43 18° WSW 03:31:30 10° SSW night (unlit)
03 Dec - 16:17:59 10° SSE 16:20:57 18° ESE 16:24:03 10° ENE daylight
03 Dec - 17:57:55 10° SW 18:02:21 73° NW 18:07:10 10° NE visible
03 Dec - 19:41:47 10° WNW 19:45:17 21° NNW 19:49:00 10° NNE visible
03 Dec - 21:26:56 10° NNW 21:29:16 13° N 21:31:42 10° NNE visible
03 Dec - 23:09:34 10° NNW 23:13:18 20° NNE 23:17:15 10° ENE night (unlit)
04 Dec - 00:51:13 10° NNW 00:56:24 58° NE 01:01:57 10° SE night (unlit)
04 Dec - 02:33:35 10° NW 02:38:18 32° WSW 02:43:17 10° S night (unlit)
04 Dec - 17:08:18 10° SSW 17:12:39 61° ESE 17:17:21 10° NE visible
04 Dec - 18:51:06 10° W 18:55:04 29° NW 18:59:21 10° NNE visible
04 Dec - 20:36:14 10° NW 20:38:47 14° N 20:41:27 10° NNE visible
04 Dec - 22:19:51 10° NNW 22:22:57 16° NNE 22:26:11 10° NE night (unlit)
